Location: Sagn�
(15.2046°N, 12.7898°W)
Time: 13:36:33
(UTC+00:00)

Cosmos 1603 - Pass Details

Date: 08 May 2021
Orbit: 832 x 858 km, 71.0° (Epoch: 14 June)

Event Time Altitude Azimuth Distance (km) Brightness Sun altitude
Rises 20:37:52 0° 349° (N) 3,388 7.4 -20.4°
Reaches altitude 10° 20:40:22 10° 353° (N) 2,449 6.5 -20.9°
Maximum altitude 20:45:53 59° 73° (ENE) 957 3.7 -22.1°
Enters shadow 20:47:00 49° 118° (ESE) 1,058 3.7 -22.3°
